AirNav   Pilot Hours Calculator
 
 1170 users online  

KSLI Los Alamitos Army Airfield
Los Alamitos, California, USA

GOING TO LOS ALAMITOS?


FAA INFORMATION EFFECTIVE 03 NOVEMBER 2022

Location

FAA Identifier: SLI
Lat/Long: 33-47-24.1080N 118-03-05.1120W
33-47.401800N 118-03.085200W
33.7900300,-118.0514200
(estimated)
Elevation: 35.5 ft. / 10.8 m (surveyed)
Variation: 12E (2020)
From city: 1 mile SE of LOS ALAMITOS, CA
Time zone: UTC -8 (UTC -7 during Daylight Saving Time)
Zip code: 90720

Airport Operations

Airport use: Private use. Permission required prior to landing
Activation date: 04/1944
Control tower: yes
ARTCC: LOS ANGELES CENTER
FSS: HAWTHORNE FLIGHT SERVICE STATION
NOTAMs facility: SLI (NOTAM-D service available)
Attendance: TUE-THU 1400-0600Z++, ALL FRI-MON 1400-2300Z++
CLSD ALL FED HOL. EXP CLOSURE OR REDUCED SVC PER NOTAM. RSTD: PPR CTC AFLD OPS, RCMD UNITS ASK FOR CURRENT CPBLTY WHEN REQG PPR DSN 972-2571, C562-795-2571; NG.CA.CAARNG.MBX.KSLIOPERATIONS@MAIL.MIL FOR PPR REQ FORM.
Segmented circle: no
Lights: SS-SR
Beacon: white-white-green (lighted military airport)
Operates sunset to sunrise.

Airport Communications

CTAF: 123.85
ATIS: 118.875 379.975
LOS ALAMITOS GROUND: 126.95 257.95 [1500-0000Z++ MON & FRI; 1500-0600Z++ TUE-THU; 1500-0000Z++ SAT-SUN; CLSD ALL FED HOL. EXP CLOSURE OR RDCD SVC PER NOTAM.]
LOS ALAMITOS TOWER: 123.85 251.15 [1500-0000Z++ MON & FRI; 1500-0600Z++ TUE-THU; 1500-0000Z++ SAT-SUN; CLSD ALL FED HOL. EXP CLOSURE OR RDCD SVC PER NOTAM.]
SOCAL APPROACH: 125.35
SOCAL DEPARTURE: 125.35
AR OPS: 139.05 230.9
EMERG: 243.0
EMMLN STAR: 127.0
HAWWC DP: 125.35
OPS: 126.2 ;AFLD OPS ADVSY SVC 233.8 ;ARNG AASF 237.2 ;AFLD OPS ADVSY SVC 41.5 ;ARNG AASF
WX ASOS at LGB (5 nm W): PHONE 562-424-0572
WX ASOS at FUL (6 nm NE): PHONE 714-870-1372
WX AWOS-3PT at CPM (11 nm NW): 127.150 (310-631-3022)
WX ASOS at SNA (11 nm SE): PHONE 714-424-0590
WX ASOS at HHR (16 nm NW): PHONE 310-973-8930
WX AWOS-3PT at EMT (18 nm N): 118.75 ((626) 444-1107)
WX ASOS at LAX (20 nm NW): PHONE 310-568-1486

Nearby radio navigation aids

VOR radial/distance  VOR name  Freq  Var
SLI at fieldSEAL BEACH VORTAC115.7015E
ELBr279/17.4EL TORO VOR/DME117.2014E
LAXr099/20.8LOS ANGELES VORTAC113.6015E
POMr202/21.7POMONA VORTAC110.4015E
SMOr108/24.1SANTA MONICA VOR/DME110.8015E
PDZr238/27.1PARADISE VORTAC112.2015E
SXCr021/31.0SANTA CATALINA VORTAC114.1515E
RALr238/(31.6)RIVERSIDE VOR108.6014E
VNYr125/34.0VAN NUYS VOR/DME113.1015E

Airport Services

Fuel available: A1+ J8
J8:NATO F24 AVBL.
Oil available: USE 251.15 WHEN LOS ALAMITOS TWR CLSD.

Runway Information

Runway 4R/22L

Dimensions: 7999 x 200 ft. / 2438 x 61 m
Surface: asphalt/concrete
Weight bearing capacity: 
PCN 36 /R/C/W/T
Runway edge lights: high intensity
HIRL ELEV 1 FT AND LCTD 5 FT FROM EDGE OF RWY.
RUNWAY 4R  RUNWAY 22L
Latitude: 33-47.026767N33-47.783300N
Longitude: 118-03.613500W118-02.319133W
Elevation: 21.2 ft.35.5 ft.
Traffic pattern: leftleft
Visual slope indicator: 4-light PAPI on left (3.00 degrees glide path)
Approach lights: SALSF
Runway end identifier lights: noyes
Centerline lights: yesyes
Touchdown point: yes, no lightsyes, no lights

Runway 4L/22R

Dimensions: 5901 x 150 ft. / 1799 x 46 m
Surface: PEM
Weight bearing capacity: 
PCN 36 /F/C/W/T
Runway edge lights: medium intensity
RUNWAY 4L  RUNWAY 22R
Latitude: 33-47.118333N33-47.676383N
Longitude: 118-03.723767W118-02.768750W
Elevation: 20.0 ft.26.9 ft.
Traffic pattern: leftleft
Touchdown point: yes, no lightsyes, no lights

Airport Ownership and Management from official FAA records

Ownership: U.S. Army
Owner: US ARMY
AASF, CAARNG, 4612 DOOLITTLE AVE
LOS ALAMITOS, CA 90720
Phone 562-795-2571
Manager: BASE OPS
LOS ALAMITOS, CA 90720
Phone 562-795-1351
AIRFIELD OPERATIONS: C562-795-2571/2561

Additional Remarks

RWY-LGTS: RWY 22L - SF.
MISC - WINDS ARE ACCURATE TO WITHIN PLUS OR MINUS 4 KNOTS.
MISC: TO EXCEED WT BRG CAP CTC AFLD OPS. SEE FLIP AP/1 RTE AND AREA RSTD AND SUPPLEMENT ARPT RMK.
ARNG AASF OPS- OPR 1530-2330Z++ MON-FRI; EXC HOL. DSN 972-2006, C562-795-2006. HTTP://WWW.CALGUARD.CA.GOV/AASF1.
RSTD: FOR SPECIAL AFTER HRS LNDG AND AFLD LIGHTING REQUESTS FOR ACFT WEIGHING UNDER 14,500 LBS, CALL AFLD OPS AT 562-795-2571.
SERVICE: TRAN ALERT - FUEL OPR 1500-2200Z++ MON-FRI, CLSD SAT-SUN, CLSD ALL FED HOL. EXP CLOSURE OR RDCD SVC PER NOTAM. NO PRIORITY BASIS. EXP SVC DELAYS IF HEAVY ACFT ARE UTILIZING LAAAF. NO ACFT LAV SVC OR BELT LOAD CTC AIRSERV AT KLGB 866-247-7378 OR 562-429-8062. LTD TRAN SVC. NO SHUTTLE SVC AVBL.
CLASSIFIED STOR FOR TSNT AIRCREW UNAVBL AT AFLD MGMT OPS; CTC BASE SECFOR DSN 972-2100, C562-795-2100.
AIRCREWS UTILIZING LAAAF MUST ADVS THEIR DEP TO LOCAL FSS TO INCL KSLIYXYX AS AN ADDRESSEE ON THE ORIG DD 175/DD 1801 FLT PLAN AND ON ANY CHG, DELAY, DEP AND CNL MSG.
ALL TRAN AIRCREWS MUST RPT TO AFLD OPS. HIGH VIS EVENTS (VIP CODE 7 AND ABV) ARE RQRD TO NTFY AFLD OPS 30 MIN PRIOR TO ARR DUE TO POST HQ COORD.
RWY-17/35 CLSD (2500X150 ASP).
MISC: AFLD SIGNS NSTD. RWY 04R/22L THLD BARS NSTD. ALL RWY MARKINGS NSTD. TWY AND PRKG LINES NSTD AND NOT VIS IN DARKNESS OR INCLEMENT WX.
MISC: WILDLIFE HAZ EXISTS; RQRS INCRD VIGILANCE BY ALL AGENCIES AND SUPVRS AND CTN BY AIRCREWS. BASH/WASH COND ANNOUNCED ON ATIS. PILOTS SHOULD RPRT ALL LARGE BIRD AND MAMMAL SIGHTINGS TO TWR OR AFLD OPS.
FOR CD WHEN ATCT CLSD CTC SOCAL APCH AT 800-448-3724.
JASU - 1(TMD150CIII) 1(AGPU).
NS ABTMT - PRO IN EFF. ALL DEP RQR BRIEFINGS.

Instrument Procedures

NOTE: All procedures below are presented as PDF files. If you need a reader for these files, you should download the free Adobe Reader.

NOT FOR NAVIGATION. Please procure official charts for flight.
FAA instrument procedures published for use from 03 November 2022 at 0901Z to 01 December 2022 at 0900Z.

 
STARs - Standard Terminal Arrivals
EMMLN ONE **NEW**   2 pages: [1] [2] (448KB)
KAYOH EIGHT   download (301KB)
 
IAPs - Instrument Approach Procedures
RNAV (GPS) RWY 22L   download (86KB)
VOR OR TACAN RWY 22L   download (156KB)
Radar Approach Procedures available   download (74KB)
 
Departure Procedures
HAWWC THREE (RNAV)   download (188KB)
NOTE: Special Take-Off Minimums/Departure Procedures apply   download (350KB)

Other nearby airports with instrument procedures:

KLGB - Long Beach Airport (Daugherty Field) (5 nm W)
KFUL - Fullerton Municipal Airport (6 nm NE)
KSNA - John Wayne/Orange County Airport (11 nm SE)
KTOA - Zamperini Field Airport (14 nm W)
KHHR - Jack Northrop Field/Hawthorne Municipal Airport (16 nm NW)
KEMT - San Gabriel Valley Airport (18 nm N)
KLAX - Los Angeles International Airport (20 nm NW)
 
Loc | Ops | Rwys | IFR | FBO | Links
Com | Nav | Svcs | Stats | Notes

Luxivair - San Bernardino International Airport
 
Area around KSLI (Los Alamitos Army Airfield)
 
Road maps at: MapQuest Bing Google
 
Aerial photo
WARNING: Photo may not be current or correct
Aerial photo of KSLI (Los Alamitos Army Airfield)
Photo courtesy of FocalFlight.com
Photo taken 01-Nov-2015
looking north.

Do you have a better or more recent aerial photo of Los Alamitos Army Airfield that you would like to share? If so, please send us your photo.

 
Sectional chart

 
Airport diagram
Diagram of KSLI (Los Alamitos Army Airfield)
Download PDF
of official airport diagram from the FAA

 
Airport distance calculator
Flying to Los Alamitos Army Airfield? Find the distance to fly.

From to KSLI

Sunrise and sunset
Times for 28-Nov-2022
 Local
(UTC-8)
 Zulu
(UTC)
Morning civil twilight06:1014:10
Sunrise06:3714:37
Sunset16:4300:43
Evening civil twilight17:1001:10

Current date and time
Zulu (UTC)  28-Nov-2022 22:51:27
Local (UTC-8)  28-Nov-2022 14:51:27
 
METAR
KSLI 
2nm SE 
282155Z 22010KT 10SM SCT025 BKN040 BKN050 16/11 A2988 RMK AO2A SLP121 T01620105
KLGB 
5nm W 
282200Z 19008KT 10SM OVC042 17/09 A2990 RMK AO2 T01670094
KFUL 
6nm NE 
282200Z VRB06KT 10SM FEW027 BKN055 17/10 A2989 RMK AO2 T01670100
KSNA 
12nm SE 
282153Z 21011KT 10SM FEW023 FEW040 SCT250 18/09 A2990 RMK AO2 SLP125 T01780089
KTOA 
13nm W 
282147Z 21007KT 10SM FEW020 SCT025 SCT030 18/11 A2990
KHHR 
16nm NW 
282153Z 27011KT 10SM SCT023 SCT042 18/11 A2990 RMK AO2 SLP125 T01780106
KEMT 
17nm N 
282145Z 24004KT 10SM BKN045 17/07 A2989
KCQT 
18nm NW 
282147Z AUTO 24003KT 10SM BKN048 18/11 A2990 RMK AO2 SLP122 T01780111
KLAX 
19nm NW 
282217Z 26010KT 10SM FEW020 SCT150 16/11 A2990 RMK AO2 T01610111
TAF
KSLI 
2nm SE 
282100Z 2821/3003 VRB06KT 9999 BKN024 QNH2990INS BECMG 2822/2823 VRB06KT 9999 FEW024 QNH2986INS BECMG 2904/2905 VRB06KT 9999 BKN024 OVC035 QNH2986INS BECMG 2919/2920 VRB06KT 9999 FEW025 QNH2990INS TX17/2922Z TN12/2915Z
KLGB 
5nm W 
282024Z 2820/2918 20008KT P6SM BKN020 FM290400 VRB03KT P6SM OVC015 FM291400 VRB03KT P6SM SCT015
KSNA 
12nm SE 
281740Z 2818/2918 12007KT P6SM SCT035 BKN250 FM281900 20008KT P6SM SCT035 BKN250 FM290300 17005KT P6SM BKN035
KLAX 
19nm NW 
282227Z 2822/2924 26010KT P6SM FEW020 SCT150 FM290300 26006KT P6SM OVC035 FM290900 VRB03KT P6SM BKN035 FM291500 01005KT P6SM FEW035 FM292000 26012KT P6SM SCT250
NOTAMs
Click for the latest NOTAMs
NOTAMs are issued by the DoD/FAA and will open in a separate window not controlled by AirNav.

 

 
 

Would you like to see your business listed on this page?

 If your business provides an interesting product or service to pilots, flight crews, aircraft, or users of the Los Alamitos Army Airfield, you should consider listing it here.  To start the listing process, click on the button below
 
Add a business
 

Other Pages about Los Alamitos Army Airfield

www.aircav.com/sli.html
 
Update a link
 
Copyright © AirNav, LLC. All rights reserved. Privacy Policy  Contact